TimeCST,TemperatureF,Dew PointF,Humidity,Sea Level PressureIn,VisibilityMPH,Wind Direction,Wind SpeedMPH,Gust SpeedMPH,PrecipitationIn,Events,Conditions,WindDirDegrees,DateUTC
12:15 AM,28.4,14.0,55,30.05,10.0,SSE,18.4,25.3,N/A,,Clear,150,2013-01-27 06:15:00
12:35 AM,28.4,14.0,55,30.05,10.0,SSE,17.3,24.2,N/A,,Clear,150,2013-01-27 06:35:00
12:55 AM,28.4,14.0,55,30.04,10.0,SSE,17.3,23.0,N/A,,Clear,150,2013-01-27 06:55:00
1:15 AM,28.4,14.0,55,30.04,10.0,SSE,15.0,25.3,N/A,,Mostly Cloudy,150,2013-01-27 07:15:00
1:35 AM,28.4,14.0,55,30.04,10.0,SSE,16.1,-,N/A,,Overcast,150,2013-01-27 07:35:00
1:55 AM,28.4,14.0,55,30.04,10.0,SSE,15.0,23.0,N/A,,Overcast,150,2013-01-27 07:55:00
2:15 AM,28.4,15.8,59,30.03,10.0,SE,13.8,-,N/A,,Overcast,140,2013-01-27 08:15:00
2:35 AM,28.4,15.8,59,30.03,10.0,SSE,15.0,21.9,N/A,,Overcast,150,2013-01-27 08:35:00
2:55 AM,28.4,15.8,59,30.02,10.0,SE,10.4,16.1,N/A,,Mostly Cloudy,140,2013-01-27 08:55:00
3:15 AM,28.4,15.8,59,30.01,10.0,SE,12.7,20.7,N/A,,Mostly Cloudy,140,2013-01-27 09:15:00
3:35 AM,28.4,15.8,59,30.00,10.0,SE,15.0,-,N/A,,Mostly Cloudy,140,2013-01-27 09:35:00
3:55 AM,28.4,15.8,59,29.99,10.0,SE,15.0,-,N/A,,Scattered Clouds,140,2013-01-27 09:55:00
4:15 AM,30.2,15.8,55,29.99,10.0,SE,11.5,19.6,N/A,,Mostly Cloudy,140,2013-01-27 10:15:00
4:35 AM,30.2,15.8,55,29.98,10.0,SSE,11.5,-,N/A,,Overcast,150,2013-01-27 10:35:00
4:55 AM,30.2,15.8,55,29.98,10.0,SE,10.4,17.3,N/A,,Overcast,140,2013-01-27 10:55:00
5:15 AM,30.2,17.6,60,29.97,10.0,SSE,10.4,-,N/A,,Overcast,150,2013-01-27 11:15:00
5:35 AM,32.0,17.6,55,29.98,10.0,SSE,15.0,-,N/A,,Overcast,150,2013-01-27 11:35:00
5:55 AM,32.0,17.6,55,29.97,10.0,SSE,15.0,21.9,N/A,,Overcast,150,2013-01-27 11:55:00
6:15 AM,32.0,17.6,55,29.96,10.0,SSE,15.0,-,N/A,,Overcast,150,2013-01-27 12:15:00
6:35 AM,32.0,19.4,60,29.95,10.0,SSE,16.1,21.9,N/A,,Overcast,150,2013-01-27 12:35:00
6:55 AM,32.0,23.0,69,29.95,5.0,SSE,19.6,-,N/A,Rain,Light Rain,150,2013-01-27 12:55:00
7:15 AM,30.2,26.6,86,29.94,7.0,SSE,17.3,23.0,N/A,Rain,Freezing Rain,150,2013-01-27 13:15:00
7:35 AM,32.0,28.4,87,29.92,6.0,SE,18.4,24.2,N/A,Rain,Light Rain,140,2013-01-27 13:35:00
7:55 AM,32.0,28.4,87,29.92,5.0,SSE,17.3,24.2,0.02,Rain,Light Rain,150,2013-01-27 13:55:00
8:15 AM,32.0,30.2,93,29.92,3.0,SSE,18.4,24.2,N/A,Rain,Light Rain,150,2013-01-27 14:15:00
8:35 AM,32.0,30.2,93,29.91,3.0,SSE,15.0,23.0,N/A,,Overcast,150,2013-01-27 14:35:00
8:55 AM,32.0,32.0,100,29.90,2.0,SSE,16.1,-,0.03,,Overcast,150,2013-01-27 14:55:00
9:15 AM,32.0,32.0,100,29.90,3.0,SE,17.3,23.0,N/A,Rain,Light Rain,140,2013-01-27 15:15:00
9:35 AM,32.0,32.0,100,29.90,1.5,SSE,19.6,26.5,N/A,Rain,Light Rain,150,2013-01-27 15:35:00
9:55 AM,32.0,32.0,100,29.89,1.2,SSE,19.6,25.3,0.04,,Light Drizzle,150,2013-01-27 15:55:00
10:15 AM,32.0,32.0,100,29.88,1.8,SE,16.1,25.3,N/A,,Overcast,140,2013-01-27 16:15:00
10:35 AM,32.0,32.0,100,29.88,4.0,SSE,20.7,-,N/A,,Light Drizzle,150,2013-01-27 16:35:00
10:55 AM,32.0,32.0,100,29.88,5.0,SSE,18.4,-,0.05,Rain,Light Rain,150,2013-01-27 16:55:00
11:15 AM,32.0,32.0,100,29.88,4.0,SSE,16.1,24.2,N/A,,Overcast,150,2013-01-27 17:15:00
11:35 AM,32.0,32.0,100,29.87,3.0,SSE,15.0,21.9,N/A,Rain,Light Rain,150,2013-01-27 17:35:00
11:55 AM,32.0,32.0,100,29.86,3.0,SSE,13.8,20.7,N/A,,Overcast,150,2013-01-27 17:55:00
12:15 PM,32.0,32.0,100,29.84,3.0,SSE,15.0,25.3,N/A,Rain,Light Rain,150,2013-01-27 18:15:00
12:35 PM,32.0,32.0,100,29.83,1.2,SSE,12.7,19.6,N/A,Rain,Light Rain,150,2013-01-27 18:35:00
12:55 PM,32.0,32.0,100,29.82,0.8,SSE,13.8,20.7,N/A,,Light Drizzle,150,2013-01-27 18:55:00
1:15 PM,32.0,32.0,100,29.81,0.8,SSE,12.7,-,N/A,,Light Drizzle,150,2013-01-27 19:15:00
1:35 PM,32.0,32.0,100,29.80,-9999.0,SSE,11.5,18.4,N/A,,Light Drizzle,150,2013-01-27 19:35:00
1:55 PM,32.0,32.0,100,29.79,1.0,SSE,15.0,-,0.01,,Overcast,150,2013-01-27 19:55:00
2:15 PM,32.0,32.0,100,29.77,1.2,SE,12.7,-,N/A,,Overcast,140,2013-01-27 20:15:00
2:35 PM,32.0,32.0,100,29.77,2.0,SE,12.7,19.6,N/A,,Overcast,140,2013-01-27 20:35:00
2:55 PM,32.0,32.0,100,29.77,4.0,SSE,10.4,18.4,N/A,,Overcast,150,2013-01-27 20:55:00
3:15 PM,32.0,32.0,100,29.77,3.0,SE,11.5,-,N/A,,Overcast,140,2013-01-27 21:15:00
3:35 PM,32.0,32.0,100,29.77,1.2,SSE,11.5,20.7,N/A,,Overcast,150,2013-01-27 21:35:00
3:55 PM,32.0,32.0,100,29.76,1.0,SSE,10.4,18.4,N/A,,Overcast,150,2013-01-27 21:55:00
4:15 PM,32.0,32.0,100,29.76,1.2,SE,9.2,15.0,N/A,,Overcast,140,2013-01-27 22:15:00
4:35 PM,32.0,32.0,100,29.75,1.2,SE,9.2,15.0,N/A,,Overcast,140,2013-01-27 22:35:00
4:55 PM,32.0,32.0,100,29.76,1.2,SSE,11.5,-,N/A,,Overcast,150,2013-01-27 22:55:00
5:15 PM,32.0,32.0,100,29.75,1.2,SSE,11.5,-,N/A,,Overcast,150,2013-01-27 23:15:00
5:35 PM,32.0,32.0,100,29.75,1.5,SE,9.2,15.0,N/A,,Overcast,140,2013-01-27 23:35:00
5:55 PM,32.0,32.0,100,29.74,2.0,SE,10.4,-,N/A,,Overcast,140,2013-01-27 23:55:00
6:15 PM,32.0,32.0,100,29.74,2.0,SE,9.2,-,N/A,,Overcast,130,2013-01-28 00:15:00
6:35 PM,32.0,32.0,100,29.75,3.0,SE,9.2,-,N/A,,Overcast,140,2013-01-28 00:35:00
6:55 PM,32.0,32.0,100,29.76,4.0,SE,9.2,-,N/A,,Overcast,140,2013-01-28 00:55:00
7:15 PM,32.0,32.0,100,29.76,3.0,SSE,8.1,-,N/A,,Overcast,150,2013-01-28 01:15:00
7:35 PM,32.0,32.0,100,29.76,2.0,SE,4.6,-,N/A,,Overcast,140,2013-01-28 01:35:00
7:55 PM,32.0,32.0,100,29.76,1.5,SE,5.8,-,N/A,,Overcast,140,2013-01-28 01:55:00
8:15 PM,32.0,32.0,100,29.76,1.5,SSE,4.6,-,N/A,,Overcast,150,2013-01-28 02:15:00
8:35 PM,32.0,32.0,100,29.76,1.5,SSE,4.6,-,N/A,,Overcast,160,2013-01-28 02:35:00
8:55 PM,32.0,32.0,100,29.76,1.5,SSE,4.6,-,N/A,,Overcast,160,2013-01-28 02:55:00
9:15 PM,32.0,32.0,100,29.75,1.8,Calm,Calm,-,N/A,,Overcast,0,2013-01-28 03:15:00
9:35 PM,32.0,32.0,100,29.75,2.0,Calm,Calm,-,N/A,,Overcast,0,2013-01-28 03:35:00
9:55 PM,32.0,32.0,100,29.76,1.8,Calm,Calm,-,N/A,,Overcast,0,2013-01-28 03:55:00
10:15 PM,32.0,32.0,100,29.76,1.0,Calm,Calm,-,N/A,,Overcast,0,2013-01-28 04:15:00
10:35 PM,32.0,32.0,100,29.76,0.5,Calm,Calm,-,N/A,,Overcast,0,2013-01-28 04:35:00
10:55 PM,32.0,32.0,100,29.77,0.2,Calm,Calm,-,N/A,Fog,Fog,0,2013-01-28 04:55:00
11:15 PM,32.0,32.0,100,29.77,0.2,Calm,Calm,-,N/A,Fog,Fog,0,2013-01-28 05:15:00
11:35 PM,32.0,32.0,100,29.76,0.2,Calm,Calm,-,N/A,Fog,Fog,0,2013-01-28 05:35:00
11:55 PM,32.0,32.0,100,29.76,0.2,Calm,Calm,-,N/A,Fog,Fog,0,2013-01-28 05:55:00